Weather History for KOGA - December, 2013

Change the Weather History Date:

Tuesday, December 31, 2013

  Actual Average (KIML) Record (KIML)
Temperature  
Mean Temperature 39 °F 28 °F  
Max Temperature 57 °F 40 °F 75 °F (1904)
Min Temperature 21 °F 15 °F -20 °F (1968)
Degree Days  
Heating Degree Days 26 37  
Month to date heating degree days 1137  
Cooling Degree Days 0 0  
Month to date cooling degree days 0  
Year to date cooling degree days 963  
Moisture  
Dew Point 21 °F    
Average Humidity 59    
Maximum Humidity 82    
Minimum Humidity 28    
Precipitation  
Precipitation 0.00 in 0.01 in 0.60 in (1931)
Sea Level Pressure  
Sea Level Pressure 29.96 in    
Wind  
Wind Speed 6 mph (West)    
Max Wind Speed 23 mph    
Max Gust Speed 33 mph    
Visibility 10 miles    
Events      
T = Trace of Precipitation, MM = Missing Value Source: NWS Daily Summary

Daily Weather History Graph

Daily Weather History Graph

Search for Another Location

Airport or City:

Trip Planner

Search our weather history database for the weather conditions in past years. The results will help you decide how hot, cold, wet, or windy it might be!

Date:

Astronomy

Dec. 31, 2013 Rise Set
Actual Time 7:12 AM MST 4:28 PM MST
Civil Twilight 6:41 AM MST 4:59 PM MST
Nautical Twilight 6:06 AM MST 5:34 PM MST
Astronomical Twilight 5:33 AM MST 6:07 PM MST
Moon 6:06 AM MST (12/31) 4:07 PM MST (12/31)
Length of Visible Light 10h 18m
Length of Day
9h 16m
Waning Crescent, 1% of the Moon is Illuminated
Dec 31
Waning Crescent
Jan 1
New
Jan 7
First Quarter
Jan 15
Full
Jan 23
Last Quarter

Hourly Weather History & Observations

Time (MST) Temp. Windchill Dew Point Humidity Pressure Visibility Wind Dir Wind Speed Gust Speed Precip Events Conditions
12:15 AM 21.6 °F 16.8 °F 16.5 °F 81% 30.09 in 10.0 mi WSW 3.5 mph - N/A   Clear
12:35 AM 24.8 °F - 17.6 °F 74% 30.08 in 10.0 mi Calm Calm - N/A   Clear
12:55 AM 24.8 °F - 17.2 °F 73% 30.07 in 10.0 mi Calm Calm - N/A   Clear
1:15 AM 27.0 °F 20.5 °F 17.8 °F 68% 30.06 in 10.0 mi West 5.8 mph - N/A   Clear
1:35 AM 28.2 °F 18.3 °F 18.5 °F 67% 30.06 in 10.0 mi West 11.5 mph - N/A   Clear
1:55 AM 27.5 °F 19.3 °F 18.3 °F 68% 30.05 in 10.0 mi West 8.1 mph - N/A   Clear
2:15 AM 26.6 °F 16.8 °F 18.1 °F 70% 30.05 in 10.0 mi West 10.4 mph - N/A   Clear
2:35 AM 24.4 °F 18.6 °F 17.2 °F 74% 30.04 in 10.0 mi WSW 4.6 mph - N/A   Clear
2:55 AM 24.1 °F 19.7 °F 16.3 °F 72% 30.02 in 10.0 mi South 3.5 mph - N/A   Clear
3:15 AM 22.6 °F - 15.8 °F 75% 30.01 in 10.0 mi Calm Calm - N/A   Clear
3:35 AM 22.5 °F - 16.2 °F 77% 30.00 in 10.0 mi Calm Calm - N/A   Clear
3:55 AM 22.3 °F - 16.3 °F 78% 29.99 in 10.0 mi Calm Calm - N/A   Clear
4:15 AM 22.5 °F 17.8 °F 16.9 °F 79% 29.98 in 10.0 mi WSW 3.5 mph - N/A   Clear
4:35 AM 22.3 °F 17.6 °F 17.2 °F 81% 29.97 in 10.0 mi West 3.5 mph - N/A   Clear
4:55 AM 22.8 °F 14.5 °F 18.0 °F 82% 29.96 in 10.0 mi WSW 6.9 mph - N/A   Clear
5:15 AM 24.3 °F 15.4 °F 18.5 °F 79% 29.96 in 10.0 mi WSW 8.1 mph - N/A   Clear
5:35 AM 25.3 °F 17.6 °F 19.0 °F 77% 29.96 in 10.0 mi West 6.9 mph - N/A   Clear
5:55 AM 25.2 °F 18.3 °F 19.2 °F 78% 29.95 in 10.0 mi West 5.8 mph - N/A   Clear
6:15 AM 25.0 °F 18.1 °F 19.2 °F 79% 29.95 in 10.0 mi West 5.8 mph - N/A   Clear
6:35 AM 24.8 °F 16.1 °F 19.2 °F 79% 29.95 in 10.0 mi West 8.1 mph - N/A   Clear
6:55 AM 24.6 °F 17.7 °F 19.0 °F 79% 29.95 in 10.0 mi West 5.8 mph - N/A   Clear
7:15 AM 24.6 °F - 18.9 °F 79% 29.95 in 10.0 mi Calm Calm - N/A   Clear
7:35 AM 24.8 °F 20.5 °F 18.9 °F 78% 29.95 in 10.0 mi WSW 3.5 mph - N/A   Clear
7:55 AM 27.3 °F 19.1 °F 20.3 °F 75% 29.95 in 10.0 mi WSW 8.1 mph - N/A   Clear
8:15 AM 27.5 °F 18.6 °F 20.5 °F 75% 29.95 in 10.0 mi WSW 9.2 mph - N/A   Clear
8:35 AM 27.5 °F 17.4 °F 21.2 °F 77% 29.95 in 10.0 mi WSW 11.5 mph - N/A   Clear
8:55 AM 31.3 °F 23.3 °F 22.1 °F 69% 29.95 in 10.0 mi WSW 9.2 mph - N/A   Clear
9:15 AM 33.8 °F 27.0 °F 23.4 °F 66% 29.97 in 10.0 mi WSW 8.1 mph - N/A   Clear
9:35 AM 36.7 °F 29.4 °F 23.0 °F 58% 29.97 in 10.0 mi WSW 10.4 mph - N/A   Clear
9:55 AM 39.2 °F 33.6 °F 23.2 °F 53% 29.97 in 10.0 mi WSW 8.1 mph - N/A   Clear
10:15 AM 42.4 °F 36.5 °F 23.9 °F 48% 29.97 in 10.0 mi WSW 10.4 mph - N/A   Clear
10:35 AM 45.3 °F 41.1 °F 24.4 °F 44% 29.96 in 10.0 mi SW 8.1 mph - N/A   Clear
10:55 AM 49.1 °F - 25.5 °F 40% 29.95 in 10.0 mi WNW 23.0 mph 33.4 mph N/A   Clear
11:15 AM 53.8 °F - 25.5 °F 34% 29.94 in 10.0 mi WNW 23.0 mph 28.8 mph N/A   Clear
11:35 AM 54.7 °F - 25.5 °F 32% 29.94 in 10.0 mi NW 20.7 mph 29.9 mph N/A   Clear
11:55 AM 56.3 °F - 24.1 °F 29% 29.93 in 10.0 mi NW 23.0 mph 31.1 mph N/A   Clear
12:15 PM 56.3 °F - 24.3 °F 29% 29.93 in 10.0 mi NW 19.6 mph 27.6 mph N/A   Clear
12:35 PM 56.5 °F - 23.9 °F 28% 29.93 in 10.0 mi NNW 16.1 mph 26.5 mph N/A   Clear
12:55 PM 56.7 °F - 23.7 °F 28% 29.93 in 10.0 mi NNW 17.3 mph 23.0 mph N/A   Clear
1:15 PM 57.0 °F - 23.7 °F 28% 29.93 in 10.0 mi NNW 11.5 mph - N/A   Clear
1:35 PM 57.2 °F - 23.7 °F 28% 29.94 in 10.0 mi NNW 12.7 mph - N/A   Clear
1:55 PM 56.8 °F - 23.5 °F 28% 29.93 in 10.0 mi NNW 12.7 mph 18.4 mph N/A   Clear
2:15 PM 56.3 °F - 23.5 °F 28% 29.94 in 10.0 mi North 12.7 mph - N/A   Clear
2:35 PM 56.3 °F - 24.1 °F 29% 29.94 in 10.0 mi North 10.4 mph - N/A   Clear
2:55 PM 55.6 °F - 24.8 °F 30% 29.95 in 10.0 mi North 11.5 mph - N/A   Clear
3:15 PM 54.1 °F - 24.6 °F 32% 29.95 in 10.0 mi NNW 3.5 mph - N/A   Clear
3:35 PM 53.8 °F - 25.2 °F 33% 29.96 in 10.0 mi North 3.5 mph - N/A   Clear
3:55 PM 52.2 °F - 24.6 °F 34% 29.95 in 10.0 mi Calm Calm - N/A   Clear
4:15 PM 49.8 °F - 25.2 °F 38% 29.95 in 10.0 mi Calm Calm - N/A   Clear
4:35 PM 45.9 °F - 24.4 °F 43% 29.95 in 10.0 mi Calm Calm - N/A   Clear
4:55 PM 39.6 °F - 22.3 °F 50% 29.95 in 10.0 mi Calm Calm - N/A   Clear
5:15 PM 35.1 °F - 19.0 °F 52% 29.95 in 10.0 mi Calm Calm - N/A   Clear
5:35 PM 33.4 °F - 20.5 °F 59% 29.94 in 10.0 mi Calm Calm - N/A   Clear
5:55 PM 32.4 °F - 20.3 °F 61% 29.94 in 10.0 mi Calm Calm - N/A   Clear
6:15 PM 32.2 °F - 20.3 °F 62% 29.94 in 10.0 mi Calm Calm - N/A   Clear
6:35 PM 32.2 °F - 20.5 °F 62% 29.93 in 10.0 mi Calm Calm - N/A   Clear
6:55 PM 28.2 °F 24.4 °F 19.8 °F 71% 29.93 in 10.0 mi WNW 3.5 mph - N/A   Clear
7:15 PM 29.7 °F - 20.3 °F 68% 29.94 in 10.0 mi Calm Calm - N/A   Clear
7:35 PM 32.0 °F - 21.6 °F 65% 29.94 in 10.0 mi Calm Calm - N/A   Clear
7:55 PM 32.0 °F 28.7 °F 22.1 °F 67% 29.93 in 10.0 mi NNE 3.5 mph - N/A   Clear
8:15 PM 31.6 °F 25.1 °F 23.0 °F 70% 29.93 in 10.0 mi East 6.9 mph - N/A   Clear
8:35 PM 31.5 °F 24.9 °F 22.3 °F 69% 29.93 in 10.0 mi East 6.9 mph - N/A   Clear
8:55 PM 32.9 °F 25.9 °F 23.4 °F 68% 29.93 in 10.0 mi East 8.1 mph - N/A   Scattered Clouds
9:15 PM 32.5 °F 29.3 °F 23.0 °F 68% 29.93 in 10.0 mi NE 3.5 mph - N/A   Scattered Clouds
9:35 PM 32.2 °F 26.7 °F 22.8 °F 68% 29.94 in 10.0 mi ENE 5.8 mph - N/A   Mostly Cloudy
9:55 PM 33.4 °F 28.1 °F 23.9 °F 68% 29.95 in 10.0 mi SE 5.8 mph - N/A   Overcast
10:15 PM 38.8 °F 33.8 °F 23.9 °F 55% 29.95 in 10.0 mi SSE 6.9 mph - N/A   Overcast
10:35 PM 38.7 °F 32.9 °F 23.9 °F 55% 29.92 in 10.0 mi SSE 8.1 mph - N/A   Overcast
10:55 PM 38.7 °F - 23.7 °F 55% 29.94 in 10.0 mi Calm Calm - N/A   Overcast
11:15 PM 37.6 °F - 23.5 °F 57% 29.93 in 10.0 mi Calm Calm - N/A   Overcast
11:35 PM 37.6 °F 34.0 °F 23.5 °F 57% 29.93 in 10.0 mi South 4.6 mph - N/A   Overcast
11:55 PM 37.4 °F - 23.9 °F 58% 29.95 in 10.0 mi Calm Calm - N/A   Overcast